Location: *
(37.5724°S, 58.0067°E)
Time: 01:05:44
(UTC+00:00)

Cosmos 1733 - Pass Details

Date: 27 June 2021
Orbit: 503 x 521 km, 82.5° (Epoch: 02 August)

Event Time Altitude Azimuth Distance (km) Brightness Sun altitude
Rises 02:45:32 0° 189° (S) 2,645 6.5 -7.6°
Reaches altitude 10° 02:47:40 10° 190° (S) 1,752 5.6 -7.2°
Maximum altitude 02:51:31 79° 276° (W) 530 3.1 -6.5°
Drops below altitude 10° 02:55:19 10° 2° (N) 1,733 6.3 -5.8°
Sets 02:57:25 0° 3° (N) 2,612 7.2 -5.5°
